TimeCST,TemperatureF,Dew PointF,Humidity,Sea Level PressureIn,VisibilityMPH,Wind Direction,Wind SpeedMPH,Gust SpeedMPH,PrecipitationIn,Events,Conditions,WindDirDegrees,DateUTC
12:52 AM,26.1,18.0,71,30.08,10.0,South,8.1,-,N/A,,Partly Cloudy,170,2012-11-24 06:52:00
1:52 AM,26.1,19.0,75,30.05,10.0,South,5.8,-,N/A,,Overcast,170,2012-11-24 07:52:00
2:52 AM,28.0,19.9,72,30.01,10.0,South,8.1,-,N/A,,Overcast,180,2012-11-24 08:52:00
3:52 AM,28.9,21.0,72,29.97,10.0,South,5.8,-,N/A,,Overcast,180,2012-11-24 09:52:00
4:52 AM,28.0,21.0,75,29.93,10.0,South,5.8,-,N/A,,Clear,180,2012-11-24 10:52:00
5:52 AM,28.0,21.0,75,29.91,10.0,South,3.5,-,N/A,,Clear,180,2012-11-24 11:52:00
6:52 AM,26.1,21.0,81,29.90,10.0,SSW,3.5,-,N/A,,Mostly Cloudy,200,2012-11-24 12:52:00
7:52 AM,28.9,23.0,78,29.89,10.0,SSW,4.6,-,N/A,,Overcast,200,2012-11-24 13:52:00
8:26 AM,30.2,26.6,86,29.81,10.0,Calm,Calm,-,0.02,Rain,Light Freezing Rain,0,2012-11-24 14:26:00
8:52 AM,30.0,27.0,88,29.89,10.0,SSW,5.8,-,0.03,Rain,Light Freezing Rain,200,2012-11-24 14:52:00
9:04 AM,30.2,28.4,93,29.80,10.0,SSW,6.9,-,0.00,,Overcast,200,2012-11-24 15:04:00
9:52 AM,30.9,28.9,92,29.88,10.0,Calm,Calm,-,0.00,,Mostly Cloudy,0,2012-11-24 15:52:00
10:52 AM,32.0,30.0,92,29.88,10.0,South,4.6,-,N/A,,Partly Cloudy,190,2012-11-24 16:52:00
11:52 AM,36.0,32.0,86,29.88,10.0,West,9.2,-,N/A,,Scattered Clouds,270,2012-11-24 17:52:00
12:52 PM,36.0,32.0,86,29.90,10.0,WNW,6.9,-,N/A,,Overcast,300,2012-11-24 18:52:00
1:52 PM,34.0,28.9,82,29.92,10.0,NNW,12.7,19.6,N/A,,Mostly Cloudy,330,2012-11-24 19:52:00
2:52 PM,33.1,28.9,85,29.94,10.0,NNW,10.4,-,N/A,,Clear,330,2012-11-24 20:52:00
3:52 PM,30.9,26.1,82,29.96,10.0,North,19.6,25.3,N/A,,Mostly Cloudy,350,2012-11-24 21:52:00
4:52 PM,26.6,21.2,80,29.93,10.0,North,11.5,-,N/A,,Clear,350,2012-11-24 22:52:00
5:34 PM,24.8,21.2,86,29.94,10.0,NNW,6.9,-,N/A,,Mostly Cloudy,330,2012-11-24 23:34:00
5:52 PM,24.1,21.0,88,30.04,10.0,NNW,15.0,-,N/A,,Overcast,340,2012-11-24 23:52:00
6:52 PM,24.1,21.9,91,30.06,10.0,NW,11.5,-,N/A,,Overcast,320,2012-11-25 00:52:00
7:52 PM,25.0,21.9,88,30.07,10.0,NW,10.4,-,N/A,,Overcast,320,2012-11-25 01:52:00
8:52 PM,26.1,23.0,88,30.07,10.0,NW,4.6,-,N/A,,Overcast,320,2012-11-25 02:52:00
9:52 PM,26.1,23.0,88,30.08,10.0,NW,6.9,-,N/A,,Overcast,320,2012-11-25 03:52:00
10:52 PM,26.1,21.9,84,30.07,10.0,NW,6.9,-,N/A,,Overcast,310,2012-11-25 04:52:00
11:27 PM,24.8,21.2,86,29.99,10.0,WSW,3.5,-,N/A,,Scattered Clouds,250,2012-11-25 05:27:00
11:52 PM,23.0,21.0,92,30.07,10.0,Calm,Calm,-,N/A,,Scattered Clouds,0,2012-11-25 05:52:00